TimeCST,TemperatureF,Dew PointF,Humidity,Sea Level PressureIn,VisibilityMPH,Wind Direction,Wind SpeedMPH,Gust SpeedMPH,PrecipitationIn,Events,Conditions,WindDirDegrees,DateUTC
12:52 AM,19.9,10.9,68,30.40,10.0,Calm,Calm,-,N/A,,Clear,0,2013-01-23 06:52:00
1:52 AM,19.0,12.0,74,30.40,10.0,Calm,Calm,-,N/A,,Clear,0,2013-01-23 07:52:00
2:52 AM,18.0,12.0,78,30.39,10.0,East,3.5,-,N/A,,Clear,100,2013-01-23 08:52:00
3:52 AM,17.1,10.9,77,30.38,10.0,Calm,Calm,-,N/A,,Clear,0,2013-01-23 09:52:00
4:52 AM,17.1,9.0,71,30.36,10.0,Calm,Calm,-,N/A,,Clear,0,2013-01-23 10:52:00
5:52 AM,17.1,10.0,74,30.36,10.0,ESE,3.5,-,N/A,,Clear,120,2013-01-23 11:52:00
6:52 AM,16.0,9.0,74,30.36,10.0,Calm,Calm,-,N/A,,Clear,0,2013-01-23 12:52:00
7:52 AM,19.0,12.0,74,30.35,10.0,Calm,Calm,-,N/A,,Clear,0,2013-01-23 13:52:00
8:52 AM,24.1,12.0,60,30.35,10.0,SSE,3.5,-,N/A,,Clear,150,2013-01-23 14:52:00
9:52 AM,28.9,10.9,47,30.33,10.0,South,8.1,-,N/A,,Clear,180,2013-01-23 15:52:00
10:52 AM,35.1,12.0,39,30.30,10.0,SSW,10.4,-,N/A,,Clear,210,2013-01-23 16:52:00
11:52 AM,39.0,16.0,39,30.26,10.0,West,10.4,-,N/A,,Clear,260,2013-01-23 17:52:00
12:52 PM,41.0,18.0,40,30.22,10.0,West,8.1,-,N/A,,Clear,260,2013-01-23 18:52:00
1:52 PM,43.0,18.0,37,30.19,10.0,SW,5.8,-,N/A,,Clear,230,2013-01-23 19:52:00
2:52 PM,45.0,21.0,39,30.18,10.0,SW,5.8,-,N/A,,Clear,230,2013-01-23 20:52:00
3:52 PM,45.0,21.0,39,30.17,10.0,West,8.1,-,N/A,,Clear,260,2013-01-23 21:52:00
4:52 PM,42.1,21.0,43,30.17,10.0,WSW,5.8,-,N/A,,Clear,250,2013-01-23 22:52:00
5:52 PM,35.1,21.0,57,30.18,10.0,SSW,5.8,-,N/A,,Clear,200,2013-01-23 23:52:00
6:52 PM,34.0,21.9,61,30.19,10.0,West,3.5,-,N/A,,Clear,260,2013-01-24 00:52:00
7:52 PM,33.1,21.9,64,30.21,10.0,Calm,Calm,-,N/A,,Clear,0,2013-01-24 01:52:00
8:52 PM,30.9,21.9,69,30.24,10.0,Calm,Calm,-,N/A,,Clear,0,2013-01-24 02:52:00
9:52 PM,27.0,23.0,85,30.26,10.0,Calm,Calm,-,N/A,,Clear,0,2013-01-24 03:52:00
10:52 PM,30.9,21.0,67,30.29,10.0,NNW,4.6,-,N/A,,Clear,330,2013-01-24 04:52:00
11:52 PM,32.0,21.0,64,30.31,10.0,NNW,10.4,-,N/A,,Clear,340,2013-01-24 05:52:00